Regional Weather Roundup
Issued by NWS

Home | Current Version | Previous Version | Text Only | Print | Product List | Glossary On
Versions: 1 2 3 4 5 6 7 8 9 10 11 12 13 14 15 16 17 18 19 20 21 22 23 24 25 26 27 28 29 30 31 32 33 34 35 36 37 38 39 40 41 42 43 44 45 46 47 48 49 50
000
ASUS43 KBIS 040002
RWRND

NORTH DAKOTA REGIONAL WEATHER ROUNDUP
NATIONAL WEATHER SERVICE BISMARCK ND
700 PM CDT WED JUN 03 2015

NOTE: "FAIR" INDICATES FEW OR NO CLOUDS BELOW 12,000 FEET WITH NO
SIGNIFICANT WEATHER AND/OR OBSTRUCTIONS TO VISIBILITY.


NDZ001>003-009>011-017-040100-
NORTHWEST NORTH DAKOTA

CITY           SKY/WX    TMP DP  RH WIND       PRES   REMARKS
WILLISTON      SUNNY     68  41  37 E9        30.00S
6HR MIN TEMP:  63; 6HR MAX TEMP:  70;

MINOT          SUNNY     62  40  44 N13       30.02R
MINOT AFB      SUNNY     64  40  41 E10       30.01R
$$

NDZ018>021-031>035-040>046-040100-
SOUTHWEST NORTH DAKOTA

CITY           SKY/WX    TMP DP  RH WIND       PRES   REMARKS
BISMARCK       CLOUDY    61  46  57 NE15      30.00S
6HR MIN TEMP:  61; 6HR MAX TEMP:  66;

DICKINSON      SUNNY     64  43  46 NE15      30.00R
GARRISON         N/A     65  41  41 NE8       30.00S
6HR MIN TEMP:  60; 6HR MAX TEMP:  65;

HETTINGER ARPT SUNNY     66  48  52 NE12      30.00S
$$

NDZ004>008-012>016-024-026-027-054-040100-
NORTHEAST NORTH DAKOTA

CITY           SKY/WX    TMP DP  RH WIND       PRES   REMARKS
GRAND FORKS    RAIN      55  53  93 N15       29.92R
GRND FRKS AFB  LGT RAIN  54  51  90 N16       29.93S
DEVILS LAKE    CLOUDY    57  43  58 N16       29.99R
$$

NDZ022-023-025-028>030-036>039-047>053-040100-
SOUTHEAST NORTH DAKOTA

CITY           SKY/WX    TMP DP  RH WIND       PRES   REMARKS
FARGO          CLOUDY    57  55  93 NW10      29.90R FOG
6HR MIN TEMP:  57; 6HR MAX TEMP:  61;

JAMESTOWN      CLOUDY    58  50  75 N17       29.96R
$$



USA.gov is the U.S. government's official web portal to all federal, state and local government web resources and services.